Back to catalog

JAWSAT

AliveScienceLEO
NORAD 26061·PAYLOAD·🇺🇸 United States

Launched Jan 27, 2000 from Vandenberg Space Force Base

Loading…

Next Passes (next 24 hours)

TLE

FreshSource: Space-Track

Epoch: Sep 14, 2026, 01:23 UTC

1 26061U 00004A   26257.05763912  .00000311  00000-0  10578-3 0  9993
2 26061 100.2235 280.1830 0031364 337.2923  22.6873 14.45182477399763

Track JAWSAT in real time with AllMySat

Download on the App Store